CZ-4C DEB, 38659

Orbit data source: Space-Track

CZ-4C DEB, 38659 is space debris in SSO originally from a launch on Tue, 15 Dec 2009 UTC launched from the Taiyaun Space Center, China (TSC). Debris objects in space refer to the collection of defunct objects orbiting the Earth. Examples of debris include non-operational satellites, rocket bodies, and fragments generated from explosions, collisions, or faulty payload assembly.

Loading next visibility...
Identifier
38659, 2009-072G
Orbit
SSO
Last TLE update
2 days ago
Origin
Manufacturer
Unknown
Mission
Spacecraft
Bus & Motor
Unknown
Mass
Unknown
Launch date (UTC)
2009-12-15 (15 years ago)
Launch vehicle
Unknown
Launch site
Taiyaun Space Center, China (TSC)
Object type
Payload
Rocket body
Debris
Shape & HBR
Unknown
Radar Cross Section
Small (<0.1 m²)

Expand to show TLE details & history

TLE from 2 days ago
0 CZ-4C DEB
1 38659U 09072G   25129.67024369  .00000309  00000-0  10425-2 0  9991
2 38659 100.6614  85.5272 0133938 281.5619 201.4485 13.05611677730167
Epoch: 2025-05-09T16:05Z
Definitive object data (Epoch: 2025-05-09T16:05:09.054Z)
Latitude
56.11325°
Longitude
172.71101°
Altitude
1,344.561 km
Speed
7.146 km/s
True Right ascension
18h 46m 53s
True Declination
55° 57' 58"
Sunlit
Object was in daylight at TLE epoch
Visualization TLE readout
Latitude
72.3605°
Longitude
-57.69232°
Altitude
1,347.258 km
Speed
7.146 km/s
Apparent Right ascension
08h 17m 53s
Apparent Declination
33° 00' 08"
Sunlit
Object is in daylight
Visualization observer readout
Local Sidereal Time
22:07:03
Azimuth
23.228° NE
Elevation
-12.834°
Doppler factor
1
Orbital elements
Apogee altitude
1,339.597 km
Perigee altitude
1,135.589 km
Semi-major axis
7,615.73 km
Eccentricity
0.0133938
Inclination
100.6614°
RAAN
85.5272°
Arg. of periapsis
281.5619°
True anomaly
200.8959°
Mean anomaly
201.4485°
Eccentric anomaly
201.17134°
Mean motion
3.2657 °/min
BSTAR
0.0010425
Orbital period
110.24 mins
Loading maneuver chart data...
Loading SW <> Apogee altitude chart data...
Loading historical data...
Loading historical data...
Loading historical data...
Loading historical data...
Loading historical data...
Loading historical data...
Loading historical data...

CZ-4C DEB Visibility forecast

Observer location: undefined°, undefined°

Span
Click to sort rows by Start time (UTC) header in descending order
Start Az.
Max El. time (UTC)
Max El. Az.
Max El.
End time (UTC)
End Az.
10 mins2025-05-11 19:07:07.654Z96.524° ESE2025-05-11 19:12:07.654Z52.985° ENE19.633°2025-05-11 19:17:07.654Z11.492° NNE
14 mins2025-05-11 20:53:07.654Z164.476° S2025-05-11 20:59:07.654Z195.231° SSW44.705°2025-05-11 21:07:07.654Z343.22° N
6 mins2025-05-11 22:46:07.654Z246.896° WSW2025-05-11 22:49:07.654Z272.455° WNW14.449°2025-05-11 22:52:07.654Z297.323° NW
9 mins2025-05-12 08:29:07.654Z52.837° ENE2025-05-12 08:33:07.654Z88.486° E20.1°2025-05-12 08:38:07.654Z133.949° SE
13 mins2025-05-12 10:16:07.654Z11.327° NNE2025-05-12 10:22:07.654Z318.9° NNW43.588°2025-05-12 10:29:07.654Z207.405° SW
6 mins2025-05-12 12:07:07.654Z331.331° NNW2025-05-12 12:10:07.654Z305.667° NW15.458°2025-05-12 12:13:07.654Z280.888° WNW
|